Weather History for KCDS - November, 2012

Change the Weather History Date:

Friday, November 9, 2012

  Actual Average Record
Temperature  
Mean Temperature 74 °F 54 °F  
Max Temperature 87 °F 68 °F 88 °F (1942)
Min Temperature 61 °F 41 °F 25 °F (1938)
Degree Days  
Heating Degree Days 0 11  
Month to date heating degree days 29 85  
Since 1 July heating degree days 208 237  
Cooling Degree Days 9 0  
Month to date cooling degree days 21 7  
Year to date cooling degree days 2787 2207  
Growing Degree Days 24 (Base 50)    
Moisture  
Dew Point 48 °F    
Average Humidity 42    
Maximum Humidity 67    
Minimum Humidity 16    
Precipitation  
Precipitation 0.00 in 0.05 in 1.20 in (1905)
Month to date precipitation 0.00 0.44  
Year to date precipitation 16.74 22.20  
Snow  
Snow 0.00 in 0.00 in - ()
Month to date snowfall 0.0 0.1  
Since 1 July snowfall 0.0 0.3  
Since 1 September snowfall 0.0 0.3  
Snow Depth -    
Sea Level Pressure  
Sea Level Pressure 29.77 in    
Wind  
Wind Speed 16 mph (SSW)    
Max Wind Speed 24 mph    
Max Gust Speed 35 mph    
Visibility 10 miles    
Events      
T = Trace of Precipitation, MM = Missing Value Source: NWS Daily Summary

Daily Weather History Graph

Daily Weather History Graph

Search for Another Location

Airport or City:

Trip Planner

Search our weather history database for the weather conditions in past years. The results will help you decide how hot, cold, wet, or windy it might be!

Date:

Astronomy

Nov. 09, 2012 Rise Set
Actual Time 7:09 AM CST 5:40 PM CST
Civil Twilight 6:42 AM CST 6:06 PM CST
Nautical Twilight 6:12 AM CST 6:36 PM CST
Astronomical Twilight 5:43 AM CST 7:06 PM CST
Moon 2:21 AM CST (11/9) 2:44 PM CST (11/9)
Length of Visible Light 11h 23m
Length of Day
10h 31m
Waning Crescent, 23% of the Moon is Illuminated
Nov 9
Waning Crescent
Nov 13
New
Nov 20
First Quarter
Nov 28
Full
Dec 6
Last Quarter

Hourly Weather History & Observations

Time (CST) Temp. Dew Point Humidity Pressure Visibility Wind Dir Wind Speed Gust Speed Precip Events Conditions
12:53 AM 72.0 °F 51.1 °F 48% 29.80 in 10.0 mi SSW 20.7 mph 26.5 mph N/A   Clear
1:53 AM 69.1 °F 51.1 °F 53% 29.80 in 10.0 mi SSW 17.3 mph - N/A   Clear
2:53 AM 66.9 °F 51.1 °F 57% 29.79 in 10.0 mi South 12.7 mph - N/A   Clear
3:53 AM 64.9 °F 52.0 °F 63% 29.79 in 10.0 mi South 12.7 mph - N/A   Clear
4:53 AM 63.0 °F 52.0 °F 67% 29.80 in 10.0 mi SSW 13.8 mph - N/A   Clear
5:53 AM 63.0 °F 52.0 °F 67% 29.80 in 10.0 mi SSW 13.8 mph - N/A   Clear
6:53 AM 62.1 °F 51.1 °F 67% 29.81 in 10.0 mi South 12.7 mph - N/A   Clear
7:53 AM 63.0 °F 52.0 °F 67% 29.82 in 10.0 mi SSW 13.8 mph - N/A   Clear
8:53 AM 69.1 °F 52.0 °F 54% 29.82 in 10.0 mi SW 15.0 mph 21.9 mph N/A   Clear
9:53 AM 73.0 °F 51.1 °F 46% 29.82 in 10.0 mi SW 15.0 mph - N/A   Clear
10:53 AM 78.1 °F 50.0 °F 37% 29.81 in 10.0 mi SSW 15.0 mph - N/A   Clear
11:53 AM 82.0 °F 46.9 °F 29% 29.79 in 10.0 mi South 12.7 mph - N/A   Clear
12:53 PM 84.9 °F 43.0 °F 23% 29.75 in 10.0 mi SSW 17.3 mph 23.0 mph N/A   Clear
1:53 PM 86.0 °F 41.0 °F 20% 29.71 in 10.0 mi SW 19.6 mph 29.9 mph N/A   Clear
2:53 PM 86.0 °F 39.0 °F 19% 29.70 in 10.0 mi SW 23.0 mph 34.5 mph N/A   Clear
3:53 PM 86.0 °F 35.1 °F 16% 29.71 in 10.0 mi SW 20.7 mph 25.3 mph N/A   Clear
4:53 PM 84.0 °F 37.0 °F 19% 29.71 in 10.0 mi SW 9.2 mph - N/A   Clear
5:53 PM 80.1 °F 39.9 °F 24% 29.72 in 10.0 mi South 13.8 mph 21.9 mph N/A   Clear
6:53 PM 77.0 °F 46.9 °F 34% 29.74 in 10.0 mi South 15.0 mph 23.0 mph N/A   Partly Cloudy
7:53 PM 75.9 °F 48.0 °F 37% 29.75 in 10.0 mi South 15.0 mph 23.0 mph N/A   Clear
8:53 PM 73.9 °F 52.0 °F 46% 29.76 in 10.0 mi South 19.6 mph 26.5 mph N/A   Clear
9:53 PM 73.0 °F 53.1 °F 49% 29.77 in 10.0 mi South 17.3 mph 26.5 mph N/A   Clear
10:53 PM 71.1 °F 54.0 °F 55% 29.78 in 10.0 mi SSW 17.3 mph 27.6 mph N/A   Clear
11:53 PM 69.1 °F 53.1 °F 57% 29.80 in 10.0 mi SSW 12.7 mph - N/A   Clear